Location: Marcé
(47.5801°N, 0.3280°W)
Time: 17:12:39
(UTC+01:00)

SR - Pass Details

Date: 03 December 2021
Orbit: 582 x 872 km, 66.7° (Epoch: 22 January)

Event Time Altitude Azimuth Distance (km) Brightness Sun altitude
Rises 01:25:36 0° 226° (SW) 2,970 - -63.6°
Reaches altitude 10° 01:28:00 10° 232° (SW) 2,022 - -63.5°
Maximum altitude 01:32:25 52° 309° (NW) 763 - -63.2°
Drops below altitude 10° 01:36:38 10° 26° (NNE) 1,930 - -62.9°
Sets 01:38:53 0° 32° (NNE) 2,821 - -62.8°
